Regional Weather Roundup
Issued by NWS Cleveland, OH

Home | Current Version | Previous Version | Graphics & Text | Print | Product List | Glossary On
Versions: 1 2 3 4 5 6 7 8 9 10 11 12 13 14 15 16 17 18 19 20 21 22 23 24 25 26 27 28 29 30 31 32 33 34 35 36 37 38 39 40 41 42 43 44 45 46 47 48 49 50
000
ASUS41 KCLE 220800
RWRCLE
OHIO REGIONAL WEATHER ROUNDUP
NATIONAL WEATHER SERVICE WILMINGTON, OH
400 AM EDT TUE AUG 22 2017

NOTE: "FAIR" INDICATES FEW OR NO CLOUDS BELOW 12,000 FEET WITH NO
SIGNIFICANT WEATHER AND/OR OBSTRUCTIONS TO VISIBILITY.

OHZ001>008-015>018-024>027-034-035-043-044-220900-
   NORTHWEST OHIO

CITY           SKY/WX    TMP DP  RH WIND       PRES   REMARKS
DEFIANCE       FAIR      72  68  87 S7        29.92F
FINDLAY        FAIR      72  67  84 S9        29.94F
TOLEDO EXPRESS FAIR      72  70  93 SW8       29.91F
TOLEDO EXEC    FAIR      74  70  87 SW8       29.93F
LIMA           FAIR      73  69  87 S8        29.96F
$$

OHZ009>014-019>023-028>033-038-089-220900-
   NORTHEAST OHIO

CITY           SKY/WX    TMP DP  RH WIND       PRES   REMARKS
CLE-HOPKINS    FAIR      78  68  71 S10       29.97F
CLE-LAKEFRONT  FAIR      78  67  68 S8        29.94F
CUY CO. ARPT   NOT AVBL
LORAIN-ELYRIA  FAIR      71  64  78 S6        29.96F
ASHTABULA      FAIR      73  71  93 S7        29.98F
AKRON-CANTON   FAIR      74  67  78 SW9       30.01F
WOOSTER        NOT AVBL
MANSFIELD      FAIR      72  68  87 S10       30.00F
YOUNGSTOWN     MOCLDY    73  68  84 S8        30.01F
$$

OHZ042-051>053-060>062-070>072-077>081-220900-
  SOUTHWEST OHIO

CITY           SKY/WX    TMP DP  RH WIND       PRES   REMARKS
CINC-COVINGTON CLOUDY    76  70  82 S8        30.01F
CINC-LUNKEN    FAIR      73  71  93 SW5       30.01F
HAMILTON       FAIR      78  69  73 SW3       30.00F
DAYTON         NOT AVBL
WRIGHT-PAT AFB CLOUDY    76  70  80 SW7       29.99F
DAYTON GENERAL FAIR      75  68  78 S8        30.00F
WILMINGTON     FAIR      72  70  93 S8        30.02F
$$

OHZ036-037-039>041-045>050-054>059-063>069-073>076-082>088-220900-
  CENTRAL AND SOUTHEAST OHIO

CITY           SKY/WX    TMP DP  RH WIND       PRES   REMARKS
COLUMBUS       CLOUDY    76  71  85 S7        30.00F
OSU AIRPORT    FAIR      76  71  85 S8        30.00F
BOLTON FIELD   NOT AVBL
RICKENBACK AFB NOT AVBL
NEWARK         FAIR      75  69  81 S6        30.01F
MARION         FAIR      73  67  81 S7        29.99F
LANCASTER      FAIR      75  69  81 SE5       30.02F
ZANESVILLE     FAIR      73  68  84 CALM      30.02F
NEW PHILLY     FAIR      72  70  93 SE3       30.02F
$$




USA.gov is the U.S. government's official web portal to all federal, state and local government web resources and services.